When you browse on this site, cookies collect data to enhance your experience and personalize the content and advertising you see.
Visit our Privacy Policy to learn more. By continuing to use the site, you agree to this use of cookies and data.
  • In Österreich
  • Länderverzeichnis
  • Für 7 Tage
  • Wassertemperatur
  • Wetterkarte
  • News
  • Widgets
  • user-avatar
    Anmelden

    Stündliche Wetter Luanda

    Heute, 15 Dezember, Sonntag

    Zeit Temperatur Niederschläge Wind Luftdruck Luftfeuchtigkeit
    00:00 +27°C° 0.1 mm 2 m/S 754 mmHg 74%
    01:00 +27°C° 0.1 mm 2 m/S 754 mmHg 75%
    02:00 +27°C° 0.1 mm 2 m/S 754 mmHg 77%
    03:00 +26°C° 0.1 mm 2 m/S 753 mmHg 79%
    04:00 +26°C° 0.1 mm 2 m/S 753 mmHg 82%
    05:00 +26°C° 0.3 mm 2 m/S 754 mmHg 84%
    06:00 +25°C° 0.3 mm 3 m/S 754 mmHg 87%
    07:00 +25°C° 0.3 mm 3 m/S 755 mmHg 90%
    08:00 +25°C° 0.2 mm 4 m/S 755 mmHg 86%
    09:00 +26°C° 0.2 mm 4 m/S 755 mmHg 82%
    10:00 +26°C° 0.2 mm 4 m/S 755 mmHg 78%
    11:00 +27°C° 0 mm 4 m/S 754 mmHg 75%
    12:00 +27°C° 0 mm 4 m/S 753 mmHg 71%
    13:00 +28°C° 0 mm 3 m/S 752 mmHg 68%
    14:00 +28°C° 0 mm 3 m/S 751 mmHg 67%
    15:00 +29°C° 0 mm 2 m/S 751 mmHg 67%
    16:00 +29°C° 0 mm 2 m/S 750 mmHg 66%
    17:00 +28°C° 0 mm 2 m/S 751 mmHg 69%
    18:00 +27°C° 0 mm 2 m/S 751 mmHg 72%
    19:00 +27°C° 0 mm 2 m/S 751 mmHg 75%
    20:00 +27°C° 0 mm 2 m/S 752 mmHg 75%
    21:00 +26°C° 0 mm 3 m/S 752 mmHg 76%
    22:00 +26°C° 0 mm 3 m/S 753 mmHg 76%
    23:00 +26°C° 0 mm 3 m/S 753 mmHg 77%

    Morgen, 16 Dezember, Montag

    Zeit Temperatur Niederschläge Wind Luftdruck Luftfeuchtigkeit
    00:00 +26°C° 0 mm 3 m/S 752 mmHg 78%
    01:00 +26°C° 0 mm 2 m/S 752 mmHg 79%
    02:00 +25°C° 0 mm 2 m/S 752 mmHg 81%
    03:00 +25°C° 0 mm 2 m/S 752 mmHg 82%
    04:00 +25°C° 0 mm 2 m/S 751 mmHg 83%
    05:00 +25°C° 0 mm 2 m/S 752 mmHg 82%
    06:00 +25°C° 0 mm 2 m/S 752 mmHg 82%
    07:00 +26°C° 0 mm 2 m/S 753 mmHg 81%
    08:00 +28°C° 0 mm 2 m/S 753 mmHg 73%
    09:00 +30°C° 0 mm 1 m/S 753 mmHg 65%
    10:00 +32°C° 0 mm 1 m/S 753 mmHg 57%
    11:00 +34°C° 0 mm 2 m/S 752 mmHg 55%
    12:00 +34°C° 0 mm 3 m/S 751 mmHg 53%
    13:00 +35°C° 0 mm 4 m/S 751 mmHg 51%
    14:00 +34°C° 0 mm 4 m/S 750 mmHg 53%
    15:00 +34°C° 0 mm 5 m/S 750 mmHg 54%
    16:00 +33°C° 0 mm 6 m/S 749 mmHg 55%
    17:00 +32°C° 0 mm 5 m/S 750 mmHg 61%
    18:00 +30°C° 0 mm 5 m/S 750 mmHg 68%
    19:00 +28°C° 0 mm 5 m/S 750 mmHg 74%
    20:00 +28°C° 0 mm 4 m/S 751 mmHg 75%
    21:00 +28°C° 0 mm 4 m/S 751 mmHg 77%
    22:00 +27°C° 0 mm 3 m/S 752 mmHg 78%
    23:00 +27°C° 0 mm 3 m/S 752 mmHg 80%

    übermorgen, 17 Dezember, Dienstag

    Zeit Temperatur Niederschläge Wind Luftdruck Luftfeuchtigkeit
    00:00 +27°C° 0 mm 2 m/S 752 mmHg 82%
    01:00 +26°C° 0 mm 2 m/S 751 mmHg 84%
    02:00 +26°C° 0.3 mm 2 m/S 751 mmHg 85%
    03:00 +26°C° 0.3 mm 2 m/S 751 mmHg 86%
    04:00 +26°C° 0.3 mm 2 m/S 751 mmHg 87%
    05:00 +26°C° 0.5 mm 2 m/S 752 mmHg 86%
    06:00 +26°C° 0.5 mm 2 m/S 752 mmHg 85%
    07:00 +27°C° 0.5 mm 2 m/S 753 mmHg 84%
    08:00 +28°C° 0.1 mm 2 m/S 753 mmHg 77%
    09:00 +29°C° 0.1 mm 2 m/S 753 mmHg 70%
    10:00 +31°C° 0.1 mm 1 m/S 753 mmHg 63%
    11:00 +32°C° 0 mm 2 m/S 752 mmHg 59%
    12:00 +34°C° 0 mm 2 m/S 752 mmHg 56%
    13:00 +34°C° 0 mm 3 m/S 751 mmHg 53%
    14:00 +34°C° 0 mm 3 m/S 751 mmHg 56%
    15:00 +34°C° 0 mm 3 m/S 750 mmHg 58%
    16:00 +33°C° 0 mm 4 m/S 750 mmHg 61%
    17:00 +32°C° 0.2 mm 4 m/S 750 mmHg 66%
    18:00 +30°C° 0.2 mm 4 m/S 751 mmHg 72%
    19:00 +28°C° 0.2 mm 4 m/S 751 mmHg 77%
    20:00 +28°C° 0.1 mm 4 m/S 752 mmHg 78%
    21:00 +28°C° 0.1 mm 3 m/S 752 mmHg 79%
    22:00 +28°C° 0.1 mm 3 m/S 753 mmHg 79%
    23:00 +28°C° 0.2 mm 3 m/S 753 mmHg 81%

    18 Dezember, Mittwoch

    Zeit Temperatur Niederschläge Wind Luftdruck Luftfeuchtigkeit
    00:00 +27°C° 0.2 mm 3 m/S 752 mmHg 83%
    01:00 +27°C° 0.2 mm 3 m/S 752 mmHg 85%
    02:00 +27°C° 0.1 mm 3 m/S 752 mmHg 86%
    03:00 +27°C° 0.1 mm 3 m/S 752 mmHg 88%
    04:00 +26°C° 0.1 mm 3 m/S 752 mmHg 89%
    05:00 +27°C° 0 mm 3 m/S 752 mmHg 86%
    06:00 +27°C° 0 mm 3 m/S 753 mmHg 83%
    07:00 +28°C° 0 mm 3 m/S 753 mmHg 81%
    08:00 +29°C° 0 mm 2 m/S 753 mmHg 71%
    09:00 +31°C° 0 mm 2 m/S 753 mmHg 62%
    10:00 +33°C° 0 mm 1 m/S 754 mmHg 53%
    11:00 +35°C° 0 mm 2 m/S 753 mmHg 51%
    12:00 +35°C° 0 mm 4 m/S 752 mmHg 49%
    13:00 +36°C° 0 mm 5 m/S 751 mmHg 47%
    14:00 +35°C° 0 mm 5 m/S 751 mmHg 49%
    15:00 +35°C° 0 mm 6 m/S 750 mmHg 51%
    16:00 +34°C° 0 mm 6 m/S 750 mmHg 53%
    17:00 +33°C° 0 mm 6 m/S 750 mmHg 60%
    18:00 +30°C° 0 mm 5 m/S 751 mmHg 66%
    19:00 +29°C° 0 mm 5 m/S 751 mmHg 73%
    20:00 +28°C° 0 mm 4 m/S 752 mmHg 75%
    21:00 +28°C° 0 mm 4 m/S 753 mmHg 77%
    22:00 +28°C° 0 mm 4 m/S 753 mmHg 79%
    23:00 +28°C° 0 mm 3 m/S 753 mmHg 81%

    19 Dezember, Donnerstag

    Zeit Temperatur Niederschläge Wind Luftdruck Luftfeuchtigkeit
    00:00 +27°C° 0 mm 3 m/S 753 mmHg 82%
    01:00 +27°C° 0 mm 2 m/S 753 mmHg 84%
    02:00 +27°C° 0 mm 2 m/S 752 mmHg 85%
    03:00 +27°C° 0 mm 2 m/S 752 mmHg 87%
    04:00 +26°C° 0 mm 1 m/S 752 mmHg 88%
    05:00 +27°C° 0 mm 1 m/S 753 mmHg 85%
    06:00 +27°C° 0 mm 1 m/S 753 mmHg 83%
    07:00 +28°C° 0 mm 1 m/S 753 mmHg 80%
    08:00 +29°C° 0.1 mm 1 m/S 754 mmHg 74%
    09:00 +30°C° 0.1 mm 1 m/S 754 mmHg 68%
    10:00 +31°C° 0.1 mm 1 m/S 754 mmHg 62%
    11:00 +31°C° 0 mm 1 m/S 753 mmHg 61%
    12:00 +31°C° 0 mm 2 m/S 753 mmHg 60%
    13:00 +32°C° 0 mm 2 m/S 752 mmHg 59%
    14:00 +33°C° 0 mm 3 m/S 752 mmHg 58%
    15:00 +33°C° 0 mm 3 m/S 751 mmHg 58%
    16:00 +33°C° 0 mm 4 m/S 751 mmHg 58%
    17:00 +32°C° 0 mm 4 m/S 751 mmHg 63%
    18:00 +30°C° 0 mm 3 m/S 752 mmHg 68%
    19:00 +28°C° 0 mm 3 m/S 752 mmHg 73%
    20:00 +28°C° 0 mm 3 m/S 753 mmHg 75%
    21:00 +28°C° 0 mm 2 m/S 754 mmHg 77%
    22:00 +28°C° 0 mm 2 m/S 754 mmHg 79%
    23:00 +27°C° 0 mm 2 m/S 754 mmHg 80%

    20 Dezember, Freitag

    Zeit Temperatur Niederschläge Wind Luftdruck Luftfeuchtigkeit
    00:00 +27°C° 0 mm 2 m/S 754 mmHg 80%
    01:00 +27°C° 0 mm 2 m/S 753 mmHg 80%
    02:00 +27°C° 0 mm 2 m/S 753 mmHg 82%
    03:00 +27°C° 0 mm 2 m/S 753 mmHg 83%
    04:00 +26°C° 0 mm 3 m/S 753 mmHg 84%
    05:00 +26°C° 0 mm 3 m/S 753 mmHg 83%
    06:00 +27°C° 0 mm 3 m/S 753 mmHg 83%
    07:00 +27°C° 0 mm 3 m/S 754 mmHg 83%
    08:00 +28°C° 0 mm 2 m/S 754 mmHg 75%
    09:00 +30°C° 0 mm 2 m/S 754 mmHg 68%
    10:00 +31°C° 0 mm 1 m/S 754 mmHg 61%
    11:00 +32°C° 0 mm 1 m/S 754 mmHg 59%
    12:00 +34°C° 0 mm 2 m/S 753 mmHg 57%
    13:00 +35°C° 0 mm 2 m/S 752 mmHg 55%
    14:00 +34°C° 0.1 mm 3 m/S 752 mmHg 55%
    15:00 +34°C° 0.1 mm 4 m/S 751 mmHg 56%
    16:00 +34°C° 0.1 mm 5 m/S 751 mmHg 57%
    17:00 +32°C° 0.1 mm 5 m/S 751 mmHg 63%
    18:00 +30°C° 0.1 mm 5 m/S 751 mmHg 69%
    19:00 +28°C° 0.1 mm 5 m/S 752 mmHg 76%
    20:00 +28°C° 0.1 mm 5 m/S 752 mmHg 78%
    21:00 +28°C° 0.1 mm 5 m/S 753 mmHg 80%
    22:00 +27°C° 0.1 mm 4 m/S 753 mmHg 81%
    23:00 +27°C° 0 mm 4 m/S 753 mmHg 82%
    Mehr zeigen